Location: Dead Woman Crossing
(43.5369°N, 106.3228°W)
Time: 03:13:47
(UTC+00:00)

N. Korean satellite - Visible Passes

Search period start: 21 January 2022 00:00
Search period end: 31 January 2022 00:00
Orbit: 446 x 491 km, 97.3° (Epoch: 20 January)

Date Brightness Start Highest point End Pass type
(mag) Time Alt. Az. Time Alt. Az. Time Alt. Az.
21 Jan 9.8 11:25:13 10° NE 11:25:24 11° NE 11:25:24 11° NE visible
21 Jan 7.8 12:57:29 10° N 12:59:27 25° NNW 12:59:27 25° NNW visible
22 Jan 7.5 12:28:06 10° N 12:37:21 - SSW 12:30:22 36° N visible
23 Jan 9.9 00:38:02 10° WSW 00:39:34 12° W 00:41:06 10° WNW visible
23 Jan 8.3 11:59:05 10° NNE 12:07:55 - S 12:01:17 30° NE visible
23 Jan 8.3 13:33:24 10° NNW 13:35:21 14° WNW 13:35:21 14° WNW visible
24 Jan 9.4 11:30:37 10° NE 11:32:12 17° ENE 11:32:12 17° ENE visible
24 Jan 7.4 13:03:14 10° N 13:06:16 29° WNW 13:06:16 29° WNW visible
25 Jan 6.5 12:33:44 10° N 12:37:10 65° NW 12:37:10 65° NW visible
26 Jan 10.2 00:44:21 10° WSW 00:45:12 11° W 00:46:02 10° WNW visible
26 Jan 7.4 12:04:36 10° NNE 12:13:31 - S 12:08:06 49° E visible
26 Jan 8.5 13:39:21 10° NW 13:40:52 12° WNW 13:42:10 11° W visible
27 Jan 9.0 11:35:57 10° NE 11:38:49 22° E 11:39:02 21° E visible
27 Jan 7.6 13:08:53 10° NNW 13:11:55 25° WNW 13:13:06 21° W visible
28 Jan 6.6 12:39:15 10° N 12:42:50 56° WNW 12:44:02 36° SW visible
29 Jan 7.1 12:10:01 10° NNE 12:13:37 59° E 12:15:01 33° SSE visible
29 Jan 8.6 13:45:25 10° NW 13:46:14 11° WNW 13:47:03 10° WNW visible
30 Jan 8.8 11:41:12 10° NE 11:44:15 25° E 11:46:03 17° SE visible
30 Jan 7.8 13:14:25 10° NNW 13:17:16 22° WNW 13:20:05 10° WSW visible
